Regional Weather Roundup
Issued by NWS

Home | Current Version | Previous Version | Text Only | Print | Product List | Glossary Off
Versions: 1 2 3 4 5 6 7 8 9 10 11 12 13 14 15 16 17 18 19 20 21 22 23 24 25 26 27 28 29 30 31 32 33 34 35 36 37 38 39 40 41 42 43 44 45 46 47 48 49 50

000
ASUS45 KBOI 292010
RWRID
WEATHER ROUNDUP FOR IDAHO
NATIONAL WEATHER SERVICE BOISE ID
200 PM MDT MON SEP 29 2014

NOTE: "FAIR" INDICATES FEW OR NO CLOUDS BELOW 12000 FEET
WITH NO SIGNIFICANT WEATHER AND/OR OBSTRUCTIONS TO VISIBILITY

IDZ012-014-292100-
SOUTHWEST IDAHO


CITY           SKY/WX    TMP DP  RH WIND       PRES   REMARKS
BOISE          CLOUDY    62  47  57 NW7       29.95R
CALDWELL       CLOUDY    61  45  55 W7        29.98S
MOUNTAIN HOME  CLOUDY    57  57 100 NE13      29.95R
$$

IDZ016-017-292100-
SOUTHCENTRAL IDAHO


CITY           SKY/WX    TMP DP  RH WIND       PRES   REMARKS
BURLEY         LGT RAIN  53  46  77 NW3       29.99F
JEROME         CLOUDY    53  45  74 E3        30.00F
TWIN FALLS     LGT RAIN  55  49  80 NE9       29.99F
$$

IDZ019>023-292100-
SOUTHEAST IDAHO


CITY           SKY/WX    TMP DP  RH WIND       PRES   REMARKS
IDAHO FALLS    PTSUNNY   57  45  64 SW6       29.98F
POCATELLO      PTSUNNY   60  48  64 W14       29.98F
REXBURG        PTSUNNY   53  44  71 S10       29.98F
$$

IDZ006-010-011-018-031-032-292100-
CENTRAL IDAHO MOUNTAINS


CITY           SKY/WX    TMP DP  RH WIND       PRES   REMARKS
MCCALL         CLOUDY    50  43  77 S3        29.97S
HAILEY         LGT RAIN  46  45  93 SE12      30.03S
STANLEY          N/A     49  42  77 W5        30.00S
SALMON         CLOUDY    61  45  55 N6        29.89F
CHALLIS        CLOUDY    55  41  59 CALM      29.94F
$$

IDZ002-004-006-007-026-292100-
NORTHERN IDAHO


CITY           SKY/WX    TMP DP  RH WIND       PRES   REMARKS
LEWISTON       CLOUDY    67  51  56 S12       29.83F
LOWELL           N/A     60  54  80 CALM      29.89F
COEUR D`ALENE  CLOUDY    61  46  59 S7        29.83F
MULLAN PASS    CLOUDY    45  40  82 VRB5      29.91F
$$



USA.gov is the U.S. government's official web portal to all federal, state and local government web resources and services.